When you browse on this site, cookies collect data to enhance your experience and personalize the content and advertising you see.
Visit our Privacy Policy to learn more. By continuing to use the site, you agree to this use of cookies and data.

Hourly Weather Nyon

Today, 14 August, Friday

Time Temperature Precipitation Wind Pressure Humidity
00:00 +20°C° 1.7 mm 1 mps 728 mmHg 95%
01:00 +19°C° 0 mm 1 mps 728 mmHg 95%
02:00 +19°C° 0 mm 1 mps 728 mmHg 94%
03:00 +18°C° 0 mm 1 mps 727 mmHg 94%
04:00 +19°C° 0 mm 1 mps 728 mmHg 93%
05:00 +17°C° 0 mm 0 mps 728 mmHg 93%
06:00 +18°C° 0 mm 0 mps 728 mmHg 92%
07:00 +19°C° 0 mm 0 mps 728 mmHg 87%
08:00 +20°C° 0 mm 0 mps 728 mmHg 83%
09:00 +22°C° 0 mm 0 mps 728 mmHg 78%
10:00 +25°C° 0.3 mm 1 mps 728 mmHg 75%
11:00 +26°C° 0.3 mm 1 mps 727 mmHg 72%
12:00 +27°C° 0.3 mm 1 mps 727 mmHg 68%
13:00 +26°C° 0.9 mm 1 mps 727 mmHg 72%
14:00 +26°C° 0.9 mm 1 mps 727 mmHg 75%
15:00 +25°C° 0.9 mm 1 mps 726 mmHg 79%
16:00 +25°C° 0.4 mm 1 mps 727 mmHg 82%
17:00 +24°C° 0.4 mm 1 mps 727 mmHg 86%
18:00 +21°C° 0.4 mm 0 mps 727 mmHg 89%
19:00 +22°C° 0 mm 1 mps 727 mmHg 90%
20:00 +21°C° 0 mm 1 mps 727 mmHg 91%
21:00 +19°C° 0 mm 1 mps 728 mmHg 91%
22:00 +19°C° 0 mm 1 mps 728 mmHg 91%
23:00 +19°C° 0 mm 1 mps 727 mmHg 91%

Tomorrow, 15 August, Saturday

Time Temperature Precipitation Wind Pressure Humidity
00:00 +19°C° 0 mm 1 mps 727 mmHg 91%
01:00 +18°C° 0 mm 1 mps 727 mmHg 91%
02:00 +16°C° 0 mm 0 mps 727 mmHg 91%
03:00 +16°C° 0 mm 0 mps 727 mmHg 92%
04:00 +16°C° 0 mm 0 mps 727 mmHg 91%
05:00 +17°C° 0 mm 0 mps 727 mmHg 90%
06:00 +18°C° 0 mm 0 mps 727 mmHg 90%
07:00 +20°C° 0 mm 0 mps 727 mmHg 82%
08:00 +24°C° 0 mm 1 mps 727 mmHg 74%
09:00 +26°C° 0 mm 1 mps 727 mmHg 66%
10:00 +27°C° 0 mm 1 mps 727 mmHg 62%
11:00 +28°C° 0 mm 1 mps 727 mmHg 57%
12:00 +29°C° 0 mm 1 mps 726 mmHg 52%
13:00 +29°C° 0 mm 1 mps 726 mmHg 52%
14:00 +29°C° 0 mm 1 mps 726 mmHg 52%
15:00 +29°C° 0 mm 1 mps 726 mmHg 51%
16:00 +27°C° 0 mm 1 mps 725 mmHg 59%
17:00 +24°C° 0 mm 0 mps 725 mmHg 66%
18:00 +22°C° 0 mm 0 mps 725 mmHg 74%
19:00 +21°C° 0 mm 0 mps 725 mmHg 77%
20:00 +22°C° 0 mm 1 mps 725 mmHg 80%
21:00 +21°C° 0 mm 1 mps 726 mmHg 84%
22:00 +20°C° 0 mm 1 mps 725 mmHg 84%
23:00 +20°C° 0 mm 1 mps 725 mmHg 85%

Day after tomorrow, 16 August, Sunday

Time Temperature Precipitation Wind Pressure Humidity
00:00 +20°C° 0 mm 1 mps 725 mmHg 86%
01:00 +20°C° 0 mm 1 mps 725 mmHg 85%
02:00 +19°C° 0 mm 1 mps 725 mmHg 84%
03:00 +19°C° 0 mm 1 mps 725 mmHg 83%
04:00 +20°C° 0 mm 1 mps 725 mmHg 81%
05:00 +20°C° 0 mm 1 mps 725 mmHg 79%
06:00 +21°C° 0 mm 1 mps 725 mmHg 77%
07:00 +23°C° 0 mm 1 mps 725 mmHg 71%
08:00 +25°C° 0 mm 1 mps 725 mmHg 64%
09:00 +26°C° 0 mm 0 mps 725 mmHg 57%
10:00 +29°C° 0 mm 1 mps 725 mmHg 53%
11:00 +30°C° 0 mm 1 mps 725 mmHg 50%
12:00 +31°C° 0 mm 1 mps 724 mmHg 46%
13:00 +30°C° 0 mm 1 mps 724 mmHg 47%
14:00 +30°C° 0 mm 1 mps 724 mmHg 49%
15:00 +30°C° 0 mm 1 mps 724 mmHg 50%
16:00 +28°C° 0.2 mm 1 mps 724 mmHg 59%
17:00 +25°C° 0.2 mm 0 mps 724 mmHg 68%
18:00 +23°C° 0.2 mm 0 mps 724 mmHg 76%
19:00 +24°C° 1.1 mm 1 mps 724 mmHg 81%
20:00 +23°C° 1.1 mm 2 mps 724 mmHg 86%
21:00 +20°C° 1.1 mm 3 mps 725 mmHg 91%
22:00 +20°C° 0.6 mm 2 mps 725 mmHg 91%
23:00 +21°C° 0.6 mm 1 mps 725 mmHg 92%

17 August, Monday

Time Temperature Precipitation Wind Pressure Humidity
00:00 +20°C° 0.6 mm 1 mps 725 mmHg 93%
01:00 +20°C° 0.2 mm 1 mps 725 mmHg 93%
02:00 +20°C° 0.2 mm 1 mps 725 mmHg 93%
03:00 +19°C° 0.2 mm 1 mps 725 mmHg 93%
04:00 +20°C° 0.5 mm 1 mps 725 mmHg 94%
05:00 +20°C° 0.5 mm 1 mps 725 mmHg 95%
06:00 +20°C° 0.5 mm 1 mps 725 mmHg 95%
07:00 +21°C° 0.4 mm 1 mps 725 mmHg 92%
08:00 +22°C° 0.4 mm 1 mps 725 mmHg 89%
09:00 +23°C° 0.4 mm 1 mps 726 mmHg 87%
10:00 +23°C° 1.2 mm 1 mps 726 mmHg 85%
11:00 +24°C° 1.2 mm 2 mps 725 mmHg 84%
12:00 +24°C° 1.2 mm 2 mps 725 mmHg 83%
13:00 +24°C° 1.3 mm 2 mps 725 mmHg 80%
14:00 +25°C° 1.3 mm 2 mps 725 mmHg 76%
15:00 +25°C° 1.3 mm 1 mps 725 mmHg 72%
16:00 +24°C° 0.8 mm 1 mps 726 mmHg 77%
17:00 +22°C° 0.8 mm 1 mps 726 mmHg 82%
18:00 +21°C° 0.8 mm 1 mps 726 mmHg 87%
19:00 +20°C° 0.4 mm 1 mps 726 mmHg 88%
20:00 +19°C° 0.4 mm 1 mps 727 mmHg 88%
21:00 +18°C° 0.4 mm 1 mps 727 mmHg 89%
22:00 +18°C° 0 mm 1 mps 727 mmHg 89%
23:00 +16°C° 0 mm 1 mps 727 mmHg 89%

18 August, Tuesday

Time Temperature Precipitation Wind Pressure Humidity
00:00 +16°C° 0 mm 1 mps 727 mmHg 89%
01:00 +16°C° 0 mm 1 mps 727 mmHg 90%
02:00 +16°C° 0 mm 1 mps 727 mmHg 90%
03:00 +14°C° 0 mm 0 mps 727 mmHg 90%
04:00 +15°C° 0 mm 0 mps 727 mmHg 90%
05:00 +16°C° 0 mm 0 mps 727 mmHg 90%
06:00 +16°C° 0 mm 0 mps 728 mmHg 90%
07:00 +18°C° 0 mm 0 mps 728 mmHg 81%
08:00 +22°C° 0 mm 1 mps 728 mmHg 73%
09:00 +24°C° 0 mm 1 mps 728 mmHg 64%
10:00 +25°C° 0 mm 1 mps 727 mmHg 60%
11:00 +26°C° 0 mm 1 mps 727 mmHg 55%
12:00 +27°C° 0 mm 1 mps 727 mmHg 50%
13:00 +26°C° 0 mm 1 mps 727 mmHg 51%
14:00 +26°C° 0 mm 1 mps 727 mmHg 51%
15:00 +26°C° 0 mm 1 mps 727 mmHg 51%
16:00 +25°C° 0 mm 1 mps 727 mmHg 59%
17:00 +23°C° 0 mm 1 mps 727 mmHg 67%
18:00 +22°C° 0 mm 1 mps 727 mmHg 75%
19:00 +21°C° 0 mm 1 mps 727 mmHg 78%
20:00 +19°C° 0 mm 1 mps 728 mmHg 80%
21:00 +18°C° 0 mm 1 mps 728 mmHg 82%
22:00 +18°C° 0 mm 1 mps 728 mmHg 82%
23:00 +18°C° 0 mm 1 mps 728 mmHg 82%

19 August, Wednesday

Time Temperature Precipitation Wind Pressure Humidity
00:00 +16°C° 0 mm 1 mps 728 mmHg 81%
01:00 +16°C° 0 mm 1 mps 728 mmHg 82%
02:00 +16°C° 0 mm 1 mps 727 mmHg 82%
03:00 +16°C° 0 mm 1 mps 727 mmHg 83%
04:00 +16°C° 0 mm 1 mps 727 mmHg 82%
05:00 +18°C° 0 mm 1 mps 727 mmHg 81%
06:00 +18°C° 0 mm 1 mps 727 mmHg 81%
07:00 +20°C° 0 mm 1 mps 727 mmHg 73%
08:00 +23°C° 0 mm 1 mps 727 mmHg 66%
09:00 +25°C° 0 mm 1 mps 727 mmHg 59%
10:00 +26°C° 0 mm 1 mps 727 mmHg 55%
11:00 +27°C° 0 mm 1 mps 727 mmHg 52%
12:00 +28°C° 0 mm 2 mps 727 mmHg 49%
13:00 +28°C° 0 mm 1 mps 726 mmHg 50%
14:00 +28°C° 0 mm 1 mps 726 mmHg 50%
15:00 +28°C° 0 mm 1 mps 726 mmHg 51%
16:00 +26°C° 0 mm 1 mps 726 mmHg 59%
17:00 +24°C° 0 mm 1 mps 726 mmHg 66%
18:00 +21°C° 0 mm 0 mps 725 mmHg 74%
19:00 +20°C° 0 mm 0 mps 726 mmHg 77%
20:00 +21°C° 0 mm 1 mps 726 mmHg 79%
21:00 +19°C° 0 mm 1 mps 726 mmHg 81%
22:00 +19°C° 0 mm 1 mps 726 mmHg 82%
23:00 +19°C° 0 mm 1 mps 726 mmHg 82%
Show more